QPF
0.02 0.01 0.01 0.01 0.02 0.01 0.01 0.02 0.02 0.03 0.06 0.06 0.07 0.07 0.09 0.13 0.10 0.05 0.05 0.05 0.04 0.04 0.03 0.02 0.02 0.03 0.02 0.02 0.02 0.01 0.02 0.02 0.01 0.01 0.02 0.02 0.02 0.01 0.01 0.01 0.00 0.00 0.00
0.01 0.01 0.01 0.02 0.03 0.02 0.02 0.02 0.03 0.03 0.03 0.04 0.05 0.06 0.06 0.08 0.06 0.03 0.03 0.03 0.04 0.04 0.03 0.03 0.03 0.02 0.03 0.03 0.02 0.02 0.03 0.03 0.03 0.02 0.01 0.02 0.02 0.02 0.02 0.01 0.01 0.00 0.01
0.01 0.01 0.01 0.02 0.02 0.02 0.02 0.02 0.02 0.03 0.03 0.03 0.04 0.04 0.05 0.05 0.05 0.03 0.03 0.03 0.02 0.03 0.03 0.03 0.02 0.03 0.02 0.03 0.02 0.02 0.02 0.03 0.03 0.03 0.02 0.02 0.03 0.02 0.02 0.02 0.02 0.01 0.01
0.02 0.01 0.02 0.01 0.01 0.01 0.02 0.02 0.02 0.03 0.03 0.03 0.03 0.04 0.03 0.04 0.04 0.04 0.03 0.03 0.02 0.01 0.02 0.03 0.03 0.03 0.02 0.03 0.03 0.03 0.02 0.02 0.01 0.01 0.02 0.03 0.03 0.03 0.03 0.03 0.03 0.02 0.02
0.02 0.02 0.02 0.02 0.02 0.01 0.02 0.02 0.02 0.01 0.02 0.03 0.03 0.04 0.04 0.05 0.05 0.05 0.06 0.05 0.02 0.01 0.01 0.03 0.04 0.03 0.03 0.04 0.03 0.03 0.03 0.02 0.01 0.02 0.02 0.02 0.03 0.03 0.03 0.03 0.03 0.03 0.02
0.03 0.02 0.02 0.02 0.02 0.01 0.01 0.02 0.01 0.01 0.01 0.02 0.02 0.04 0.04 0.05 0.04 0.04 0.04 0.03 0.02 0.01 0.01 0.01 0.01 0.02 0.03 0.03 0.02 0.03 0.03 0.02 0.02 0.02 0.02 0.02 0.04 0.04 0.03 0.03 0.04 0.03 0.02
0.03 0.02 0.02 0.02 0.02 0.01 0.01 0.01 0.01 0.01 0.01 0.01 0.02 0.03 0.03 0.04 0.04 0.04 0.05 0.04 0.03 0.02 0.02 0.02 0.01 0.01 0.01 0.02 0.02 0.03 0.04 0.04 0.03 0.02 0.02 0.03 0.03 0.04 0.03 0.03 0.03 0.03 0.03
0.02 0.03 0.03 0.02 0.01 0.01 0.01 0.01 0.00 0.00 0.01 0.01 0.01 0.02 0.03 0.04 0.04 0.05 0.05 0.04 0.04 0.03 0.02 0.03 0.01 0.01 0.01 0.00 0.01 0.02 0.04 0.05 0.04 0.03 0.02 0.02 0.02 0.02 0.02 0.02 0.02 0.02 0.03
0.02 0.03 0.02 0.02 0.01 0.01 0.00 0.00 0.00 0.00 0.00 0.00 0.00 0.01 0.01 0.02 0.02 0.03 0.03 0.04 0.04 0.04 0.04 0.04 0.02 0.02 0.01 0.01 0.00 0.01 0.02 0.03 0.04 0.04 0.03 0.03 0.02 0.01 0.01 0.01 0.02 0.02 0.02
0.03 0.02 0.01 0.01 0.01 0.01 0.01 0.00 0.00 0.00 0.00 0.01 0.01 0.00 0.00 0.00 0.01 0.01 0.02 0.02 0.02 0.03 0.04 0.03 0.02 0.01 0.01 0.01 0.01 0.00 0.01 0.01 0.02 0.03 0.03 0.03 0.02 0.01 0.01 0.01 0.02 0.03 0.03
0.03 0.01 0.01 0.01 0.00 0.01 0.01 0.00 0.00 0.00 0.00 0.01 0.01 0.00 0.00 0.00 0.00 0.00 0.00 0.00 0.01 0.01 0.01 0.01 0.01 0.01 0.01 0.01 0.01 0.01 0.01 0.00 0.01 0.01 0.02 0.02 0.03 0.02 0.02 0.02 0.02 0.04 0.03
0.03 0.02 0.01 0.00 0.00 0.01 0.00 0.00 0.00 0.00 0.00 0.00 0.01 0.00 0.00 0.00 0.00 0.00 0.00 0.00 0.00 0.00 0.01 0.01 0.01 0.01 0.01 0.00 0.00 0.00 0.00 0.00 0.00 0.00 0.01 0.01 0.01 0.02 0.02 0.02 0.03 0.04 0.04
0.02 0.02 0.01 0.00 0.00 0.00 0.00 0.00 0.00 0.00 0.00 0.00 0.00 0.00 0.00 0.00 0.00 0.00 0.00 0.00 0.00 0.00 0.01 0.01 0.00 0.00 0.00 0.00 0.00 0.00 0.00 0.00 0.00 0.00 0.00 0.01 0.00 0.01 0.01 0.01 0.02 0.02 0.03
0.02 0.02 0.02 0.01 0.00 0.00 0.00 0.00 0.00 0.00 0.00 0.00 0.00 0.00 0.00 0.00 0.00 0.00 0.00 0.00 0.00 0.00 0.00 0.00 0.00 0.00 0.00 0.00 0.00 0.00 0.00 0.00 0.00 0.00 0.00 0.00 0.00 0.00 0.00 0.00 0.00 0.00 0.01
0.02 0.02 0.01 0.01 0.00 0.00 0.00 0.00 0.00 0.00 0.00 0.00 0.00 0.00 0.00 0.00 0.00 0.00 0.00 0.00 0.00 0.00 0.00 0.00 0.00 0.00 0.00 0.00 0.00 0.00 0.00 0.00 0.00 0.00 0.00 0.00 0.00 0.00 0.00 0.00 0.00 0.00 0.00
0.04 0.02 0.02 0.01 0.01 0.00 0.00 0.00 0.00 0.00 0.00 0.00 0.00 0.00 0.00 0.00 0.00 0.00 0.00 0.00 0.00 0.00 0.00 0.00 0.00 0.00 0.00 0.00 0.00 0.00 0.00 0.00 0.00 0.00 0.00 0.00 0.00 0.00 0.00 0.00 0.00 0.00 0.00
0.05 0.04 0.03 0.02 0.02 0.02 0.01 0.01 0.00 0.00 0.00 0.00 0.00 0.00 0.00 0.00 0.00 0.00 0.00 0.00 0.00 0.00 0.00 0.00 0.00 0.00 0.00 0.00 0.00 0.00 0.00 0.00 0.00 0.00 0.00 0.00 0.00 0.00 0.00 0.00 0.00 0.00 0.00
0.08 0.06 0.05 0.04 0.04 0.03 0.02 0.01 0.00 0.00 0.00 0.00 0.00 0.00 0.00 0.00 0.00 0.00 0.00 0.00 0.00 0.00 0.00 0.00 0.00 0.00 0.00 0.00 0.00 0.00 0.00 0.00 0.00 0.00 0.00 0.00 0.00 0.00 0.00 0.00 0.00 0.00 0.00
0.08 0.08 0.05 0.05 0.04 0.03 0.02 0.01 0.01 0.00 0.00 0.00 0.00 0.00 0.00 0.00 0.00 0.00 0.00 0.00 0.00 0.00 0.00 0.00 0.00 0.00 0.00 0.00 0.00 0.00 0.00 0.01 0.01 0.01 0.00 0.00 0.00 0.00 0.00 0.00 0.00 0.00 0.00
0.07 0.08 0.05 0.04 0.04 0.03 0.02 0.02 0.02 0.01 0.01 0.00 0.00 0.00 0.00 0.00 0.00 0.00 0.00 0.01 0.00 0.00 0.00 0.00 0.00 0.00 0.00 0.00 0.00 0.00 0.00 0.00 0.00 0.00 0.01 0.00 0.00 0.00 0.00 0.00 0.00 0.00 0.00
0.06 0.08 0.07 0.05 0.04 0.04 0.02 0.02 0.02 0.01 0.01 0.01 0.01 0.01 0.01 0.01 0.01 0.01 0.01 0.01 0.00 0.00 0.00 0.00 0.00 0.00 0.00 0.00 0.00 0.00 0.00 0.00 0.00 0.00 0.00 0.00 0.00 0.00 0.00 0.00 0.00 0.00 0.00
0.07 0.08 0.09 0.07 0.05 0.03 0.03 0.03 0.02 0.02 0.02 0.02 0.01 0.01 0.01 0.01 0.01 0.01 0.01 0.01 0.00 0.00 0.00 0.00 0.00 0.00 0.00 0.00 0.00 0.00 0.00 0.00 0.00 0.00 0.00 0.00 0.00 0.00 0.00 0.00 0.00 0.00 0.00
0.07 0.07 0.07 0.09 0.07 0.05 0.04 0.04 0.03 0.03 0.03 0.03 0.02 0.02 0.01 0.01 0.02 0.01 0.01 0.01 0.01 0.01 0.00 0.00 0.00 0.00 0.00 0.00 0.00 0.00 0.00 0.00 0.00 0.00 0.00 0.00 0.00 0.00 0.00 0.00 0.00 0.00 0.00
0.07 0.07 0.06 0.07 0.07 0.06 0.06 0.06 0.05 0.05 0.04 0.04 0.03 0.02 0.01 0.01 0.02 0.01 0.01 0.01 0.01 0.01 0.01 0.01 0.01 0.00 0.00 0.00 0.01 0.01 0.01 0.01 0.00 0.00 0.00 0.00 0.00 0.00 0.00 0.00 0.00 0.00 0.00
0.08 0.06 0.06 0.07 0.08 0.08 0.08 0.08 0.08 0.07 0.06 0.04 0.03 0.03 0.02 0.01 0.02 0.02 0.02 0.01 0.01 0.01 0.02 0.02 0.01 0.01 0.01 0.01 0.01 0.01 0.01 0.01 0.00 0.00 0.00 0.00 0.00 0.00 0.00 0.00 0.00 0.00 0.00
0.09 0.09 0.07 0.05 0.05 0.06 0.07 0.09 0.10 0.08 0.06 0.05 0.04 0.04 0.03 0.03 0.02 0.03 0.03 0.02 0.02 0.02 0.02 0.01 0.01 0.01 0.01 0.00 0.01 0.01 0.01 0.01 0.01 0.00 0.00 0.00 0.00 0.00 0.00 0.00 0.00 0.00 0.00
MSLP
1015.88 1016.03 1016.08 1016.07 1016.06 1016.08 1016.15 1016.28 1016.46 1016.66 1016.86 1017.05 1017.20 1017.32 1017.42 1017.51 1017.61 1017.72 1017.85 1017.99 1018.13 1018.26 1018.39 1018.52 1018.65 1018.78 1018.93 1019.09 1019.26 1019.44 1019.62 1019.79 1019.96 1020.13 1020.30 1020.49 1020.69 1020.90 1021.10 1021.30 1021.47 1021.61 1021.73
1015.75 1015.92 1016.00 1016.03 1016.06 1016.12 1016.23 1016.39 1016.59 1016.83 1017.06 1017.27 1017.45 1017.59 1017.71 1017.80 1017.88 1017.95 1018.04 1018.13 1018.22 1018.33 1018.44 1018.56 1018.69 1018.84 1019.00 1019.16 1019.33 1019.49 1019.66 1019.82 1019.99 1020.17 1020.36 1020.58 1020.80 1021.04 1021.26 1021.46 1021.64 1021.78 1021.89
1015.51 1015.71 1015.84 1015.94 1016.04 1016.16 1016.32 1016.52 1016.76 1017.01 1017.27 1017.50 1017.70 1017.86 1017.98 1018.08 1018.14 1018.19 1018.23 1018.27 1018.32 1018.38 1018.47 1018.57 1018.71 1018.86 1019.02 1019.19 1019.35 1019.51 1019.66 1019.81 1019.97 1020.15 1020.35 1020.57 1020.82 1021.07 1021.32 1021.54 1021.73 1021.88 1022.00
1015.22 1015.44 1015.64 1015.83 1016.01 1016.22 1016.44 1016.68 1016.94 1017.21 1017.47 1017.71 1017.92 1018.10 1018.23 1018.33 1018.39 1018.42 1018.42 1018.42 1018.42 1018.45 1018.50 1018.59 1018.71 1018.86 1019.02 1019.19 1019.35 1019.50 1019.64 1019.77 1019.91 1020.07 1020.26 1020.49 1020.74 1021.01 1021.28 1021.52 1021.73 1021.90 1022.03
1014.93 1015.20 1015.47 1015.75 1016.03 1016.31 1016.59 1016.87 1017.14 1017.40 1017.65 1017.88 1018.10 1018.28 1018.44 1018.55 1018.62 1018.64 1018.63 1018.60 1018.56 1018.55 1018.56 1018.62 1018.73 1018.86 1019.03 1019.19 1019.35 1019.49 1019.61 1019.72 1019.83 1019.97 1020.14 1020.35 1020.60 1020.87 1021.14 1021.40 1021.63 1021.82 1021.97
1014.72 1015.03 1015.37 1015.73 1016.09 1016.44 1016.77 1017.06 1017.32 1017.56 1017.78 1018.00 1018.21 1018.40 1018.58 1018.72 1018.81 1018.85 1018.84 1018.79 1018.74 1018.68 1018.67 1018.69 1018.77 1018.90 1019.05 1019.21 1019.37 1019.50 1019.60 1019.69 1019.78 1019.89 1020.03 1020.21 1020.43 1020.69 1020.95 1021.21 1021.45 1021.65 1021.82
1014.62 1014.96 1015.35 1015.78 1016.21 1016.61 1016.95 1017.24 1017.47 1017.67 1017.86 1018.05 1018.24 1018.45 1018.66 1018.83 1018.97 1019.04 1019.05 1019.00 1018.93 1018.85 1018.80 1018.80 1018.85 1018.95 1019.10 1019.25 1019.40 1019.52 1019.62 1019.70 1019.76 1019.84 1019.95 1020.09 1020.28 1020.51 1020.75 1021.00 1021.24 1021.44 1021.62
1014.64 1014.99 1015.42 1015.89 1016.35 1016.77 1017.12 1017.38 1017.58 1017.73 1017.87 1018.03 1018.21 1018.43 1018.67 1018.90 1019.08 1019.20 1019.24 1019.21 1019.13 1019.03 1018.95 1018.92 1018.94 1019.02 1019.14 1019.29 1019.44 1019.56 1019.66 1019.73 1019.78 1019.84 1019.92 1020.03 1020.18 1020.37 1020.59 1020.81 1021.03 1021.22 1021.39
1014.73 1015.08 1015.53 1016.02 1016.49 1016.91 1017.24 1017.47 1017.62 1017.72 1017.82 1017.95 1018.13 1018.37 1018.64 1018.91 1019.15 1019.31 1019.39 1019.38 1019.30 1019.19 1019.09 1019.02 1019.00 1019.06 1019.17 1019.30 1019.45 1019.59 1019.69 1019.77 1019.82 1019.87 1019.93 1020.01 1020.13 1020.29 1020.47 1020.66 1020.85 1021.03 1021.18
1014.84 1015.19 1015.64 1016.13 1016.60 1017.00 1017.30 1017.49 1017.60 1017.66 1017.73 1017.84 1018.02 1018.28 1018.58 1018.89 1019.17 1019.38 1019.49 1019.50 1019.42 1019.30 1019.17 1019.07 1019.02 1019.05 1019.14 1019.27 1019.41 1019.55 1019.67 1019.76 1019.83 1019.87 1019.93 1020.01 1020.10 1020.23 1020.38 1020.55 1020.71 1020.86 1020.98
1014.92 1015.27 1015.71 1016.18 1016.64 1017.02 1017.30 1017.47 1017.55 1017.59 1017.64 1017.74 1017.92 1018.19 1018.51 1018.86 1019.17 1019.40 1019.53 1019.54 1019.47 1019.34 1019.18 1019.06 1018.98 1018.98 1019.04 1019.15 1019.29 1019.44 1019.57 1019.67 1019.75 1019.82 1019.88 1019.96 1020.05 1020.16 1020.30 1020.44 1020.57 1020.70 1020.80
1014.94 1015.29 1015.72 1016.19 1016.63 1017.00 1017.26 1017.42 1017.49 1017.53 1017.57 1017.68 1017.87 1018.14 1018.47 1018.82 1019.14 1019.38 1019.51 1019.53 1019.45 1019.31 1019.14 1018.99 1018.89 1018.85 1018.89 1018.98 1019.10 1019.23 1019.36 1019.47 1019.56 1019.65 1019.73 1019.82 1019.92 1020.04 1020.16 1020.29 1020.41 1020.51 1020.60
1014.89 1015.25 1015.68 1016.15 1016.58 1016.94 1017.21 1017.37 1017.45 1017.50 1017.56 1017.68 1017.87 1018.14 1018.46 1018.80 1019.10 1019.33 1019.45 1019.46 1019.38 1019.23 1019.05 1018.89 1018.76 1018.70 1018.71 1018.76 1018.85 1018.96 1019.07 1019.17 1019.27 1019.36 1019.46 1019.57 1019.69 1019.81 1019.95 1020.07 1020.18 1020.28 1020.35
1014.80 1015.18 1015.62 1016.08 1016.51 1016.88 1017.16 1017.34 1017.46 1017.53 1017.62 1017.74 1017.94 1018.19 1018.49 1018.79 1019.06 1019.26 1019.37 1019.37 1019.28 1019.14 1018.96 1018.79 1018.66 1018.57 1018.54 1018.55 1018.60 1018.66 1018.73 1018.81 1018.89 1018.98 1019.08 1019.20 1019.34 1019.48 1019.63 1019.76 1019.88 1019.97 1020.03
1014.71 1015.11 1015.56 1016.02 1016.46 1016.84 1017.14 1017.35 1017.50 1017.61 1017.72 1017.86 1018.04 1018.27 1018.53 1018.79 1019.02 1019.18 1019.27 1019.26 1019.18 1019.05 1018.90 1018.74 1018.61 1018.51 1018.44 1018.41 1018.40 1018.40 1018.41 1018.44 1018.48 1018.55 1018.64 1018.76 1018.91 1019.06 1019.21 1019.35 1019.47 1019.57 1019.63
1014.63 1015.06 1015.51 1015.98 1016.43 1016.82 1017.14 1017.38 1017.57 1017.71 1017.84 1017.99 1018.16 1018.36 1018.58 1018.78 1018.97 1019.09 1019.16 1019.16 1019.10 1019.00 1018.87 1018.75 1018.63 1018.53 1018.44 1018.36 1018.29 1018.22 1018.16 1018.12 1018.11 1018.13 1018.19 1018.29 1018.43 1018.58 1018.73 1018.87 1018.99 1019.08 1019.13
1014.58 1015.02 1015.49 1015.96 1016.40 1016.80 1017.14 1017.41 1017.62 1017.79 1017.94 1018.08 1018.24 1018.41 1018.58 1018.74 1018.88 1018.98 1019.04 1019.05 1019.02 1018.96 1018.89 1018.81 1018.72 1018.63 1018.53 1018.41 1018.28 1018.15 1018.01 1017.90 1017.81 1017.77 1017.79 1017.85 1017.95 1018.08 1018.21 1018.34 1018.44 1018.51 1018.55
1014.54 1015.00 1015.47 1015.93 1016.37 1016.77 1017.11 1017.39 1017.62 1017.80 1017.96 1018.11 1018.25 1018.39 1018.53 1018.65 1018.76 1018.84 1018.89 1018.92 1018.93 1018.93 1018.92 1018.89 1018.84 1018.77 1018.67 1018.53 1018.36 1018.17 1017.97 1017.78 1017.62 1017.51 1017.46 1017.47 1017.52 1017.60 1017.69 1017.78 1017.84 1017.88 1017.90
1014.49 1014.95 1015.41 1015.87 1016.30 1016.69 1017.03 1017.31 1017.54 1017.74 1017.90 1018.04 1018.17 1018.29 1018.40 1018.50 1018.59 1018.66 1018.72 1018.77 1018.82 1018.86 1018.91 1018.93 1018.93 1018.89 1018.81 1018.66 1018.47 1018.24 1017.99 1017.74 1017.52 1017.35 1017.23 1017.16 1017.15 1017.16 1017.19 1017.21 1017.22 1017.21 1017.19
1014.38 1014.85 1015.31 1015.76 1016.17 1016.54 1016.87 1017.15 1017.38 1017.58 1017.74 1017.89 1018.01 1018.12 1018.22 1018.30 1018.37 1018.43 1018.50 1018.57 1018.65 1018.73 1018.82 1018.89 1018.93 1018.92 1018.86 1018.73 1018.54 1018.29 1018.02 1017.73 1017.47 1017.24 1017.06 1016.92 1016.83 1016.76 1016.71 1016.65 1016.59 1016.51 1016.43
1014.22 1014.69 1015.15 1015.58 1015.98 1016.34 1016.65 1016.92 1017.15 1017.34 1017.51 1017.66 1017.78 1017.89 1017.98 1018.06 1018.12 1018.18 1018.25 1018.32 1018.41 1018.51 1018.62 1018.72 1018.78 1018.81 1018.77 1018.66 1018.49 1018.26 1017.98 1017.69 1017.40 1017.14 1016.90 1016.71 1016.54 1016.39 1016.24 1016.10 1015.95 1015.80 1015.65
1014.00 1014.48 1014.94 1015.36 1015.75 1016.09 1016.38 1016.64 1016.86 1017.05 1017.22 1017.38 1017.51 1017.62 1017.72 1017.79 1017.86 1017.91 1017.96 1018.02 1018.10 1018.19 1018.29 1018.39 1018.47 1018.51 1018.50 1018.42 1018.28 1018.08 1017.83 1017.55 1017.27 1016.99 1016.72 1016.47 1016.24 1016.01 1015.78 1015.54 1015.31 1015.08 1014.86
1013.75 1014.24 1014.69 1015.11 1015.48 1015.81 1016.09 1016.33 1016.54 1016.73 1016.91 1017.07 1017.21 1017.34 1017.44 1017.52 1017.57 1017.61 1017.64 1017.67 1017.72 1017.77 1017.84 1017.92 1017.98 1018.03 1018.03 1017.98 1017.87 1017.72 1017.52 1017.28 1017.02 1016.74 1016.46 1016.18 1015.89 1015.59 1015.29 1014.98 1014.67 1014.36 1014.09
1013.50 1013.99 1014.44 1014.85 1015.21 1015.51 1015.77 1016.00 1016.20 1016.39 1016.57 1016.74 1016.90 1017.03 1017.15 1017.22 1017.27 1017.29 1017.29 1017.27 1017.27 1017.27 1017.28 1017.31 1017.35 1017.37 1017.38 1017.35 1017.29 1017.18 1017.03 1016.83 1016.61 1016.36 1016.08 1015.78 1015.46 1015.12 1014.76 1014.39 1014.03 1013.67 1013.34
1013.26 1013.75 1014.19 1014.59 1014.92 1015.21 1015.45 1015.65 1015.84 1016.02 1016.20 1016.38 1016.54 1016.69 1016.81 1016.89 1016.93 1016.92 1016.88 1016.82 1016.75 1016.69 1016.64 1016.62 1016.60 1016.60 1016.60 1016.59 1016.55 1016.48 1016.37 1016.23 1016.04 1015.82 1015.56 1015.26 1014.93 1014.57 1014.18 1013.78 1013.38 1013.00 1012.65
1013.04 1013.51 1013.94 1014.31 1014.62 1014.88 1015.10 1015.28 1015.45 1015.62 1015.79 1015.96 1016.14 1016.29 1016.41 1016.49 1016.52 1016.49 1016.42 1016.31 1016.19 1016.07 1015.96 1015.87 1015.81 1015.77 1015.75 1015.73 1015.71 1015.66 1015.59 1015.48 1015.33 1015.14 1014.90 1014.62 1014.30 1013.94 1013.55 1013.15 1012.75 1012.36 1012.02
Thickness
5749 5748 5746 5745 5744 5743 5742 5740 5739 5738 5737 5735 5734 5732 5731 5730 5729 5727 5725 5724 5722 5721 5719 5717 5716 5714 5713 5712 5711 5710 5709 5708 5707 5707 5706 5705 5704 5704 5703 5702 5701 5700 5699
5749 5747 5745 5744 5743 5742 5741 5740 5739 5738 5737 5736 5734 5732 5730 5728 5727 5726 5724 5723 5721 5720 5718 5717 5715 5714 5712 5711 5710 5709 5708 5707 5706 5705 5704 5703 5703 5702 5701 5700 5699 5698 5698
5749 5747 5745 5744 5744 5743 5742 5740 5739 5738 5737 5736 5734 5732 5730 5728 5726 5725 5724 5722 5721 5719 5718 5717 5715 5713 5712 5711 5709 5708 5707 5706 5705 5704 5703 5702 5701 5700 5699 5699 5698 5697 5696
5748 5747 5745 5744 5744 5743 5742 5740 5738 5736 5734 5733 5732 5731 5730 5728 5726 5725 5723 5722 5720 5719 5718 5717 5715 5713 5711 5710 5709 5707 5706 5705 5704 5703 5702 5701 5700 5699 5698 5697 5696 5695 5695
5748 5747 5745 5745 5744 5742 5741 5740 5737 5735 5733 5731 5731 5730 5729 5728 5726 5725 5724 5722 5721 5719 5718 5716 5715 5713 5711 5710 5708 5707 5705 5704 5703 5702 5701 5700 5699 5698 5697 5696 5695 5694 5693
5747 5746 5745 5744 5743 5741 5739 5738 5736 5735 5733 5731 5731 5729 5728 5727 5727 5726 5724 5723 5721 5719 5717 5716 5714 5713 5711 5710 5708 5706 5705 5703 5702 5701 5700 5699 5697 5696 5696 5695 5694 5693 5692
5746 5745 5744 5743 5742 5739 5738 5737 5735 5733 5731 5731 5726 5723 5723 5726 5725 5725 5724 5722 5721 5719 5717 5716 5714 5713 5711 5709 5708 5706 5704 5702 5701 5700 5699 5698 5697 5696 5695 5694 5693 5692 5691
5745 5744 5743 5741 5740 5738 5737 5736 5735 5731 5730 5730 5725 5718 5713 5715 5720 5724 5723 5722 5720 5719 5717 5716 5714 5712 5710 5709 5707 5705 5704 5702 5701 5699 5698 5697 5696 5695 5694 5693 5692 5691 5690
5743 5743 5742 5741 5739 5738 5736 5736 5734 5731 5727 5728 5728 5721 5712 5708 5713 5718 5721 5721 5720 5718 5717 5715 5714 5712 5710 5708 5707 5705 5703 5701 5700 5699 5698 5696 5695 5694 5693 5692 5691 5690 5690
5742 5742 5740 5740 5739 5738 5736 5736 5735 5733 5730 5726 5727 5727 5725 5721 5713 5711 5716 5719 5719 5718 5716 5715 5714 5711 5710 5708 5706 5705 5703 5701 5700 5698 5697 5696 5694 5693 5692 5691 5690 5689 5689
5740 5740 5740 5739 5738 5737 5737 5736 5734 5733 5731 5728 5726 5726 5724 5722 5720 5713 5709 5712 5715 5716 5716 5715 5714 5712 5710 5708 5706 5704 5703 5701 5699 5698 5696 5695 5693 5692 5691 5690 5689 5688 5688
5737 5738 5738 5738 5737 5737 5736 5735 5734 5733 5731 5730 5728 5727 5724 5721 5718 5715 5710 5709 5709 5713 5715 5714 5713 5712 5710 5708 5706 5704 5702 5701 5698 5697 5695 5694 5693 5691 5690 5689 5688 5687 5686
5735 5736 5737 5736 5736 5736 5735 5734 5733 5732 5731 5729 5728 5726 5725 5724 5723 5718 5713 5709 5708 5709 5711 5712 5712 5711 5710 5708 5706 5704 5702 5699 5697 5696 5694 5693 5691 5690 5689 5688 5687 5686 5685
5735 5736 5736 5735 5735 5735 5734 5733 5731 5730 5730 5728 5728 5726 5724 5724 5724 5721 5716 5710 5704 5703 5705 5708 5711 5711 5709 5707 5706 5703 5701 5698 5696 5695 5693 5692 5690 5689 5688 5686 5685 5684 5683
5735 5734 5734 5734 5734 5733 5732 5731 5729 5729 5728 5727 5726 5725 5723 5723 5722 5722 5719 5716 5707 5699 5698 5704 5706 5709 5708 5706 5704 5701 5699 5698 5695 5693 5692 5690 5689 5688 5686 5685 5683 5682 5681
5734 5733 5733 5732 5731 5731 5730 5729 5728 5727 5725 5724 5724 5722 5721 5720 5720 5719 5717 5715 5712 5705 5699 5702 5704 5706 5705 5704 5702 5700 5698 5696 5694 5692 5690 5689 5688 5686 5685 5683 5681 5680 5678
5732 5732 5732 5730 5729 5728 5728 5726 5725 5724 5723 5721 5721 5720 5718 5718 5716 5715 5714 5712 5709 5706 5699 5699 5702 5703 5702 5700 5699 5697 5695 5693 5692 5690 5689 5688 5686 5685 5683 5682 5680 5678 5676
5732 5731 5730 5729 5727 5726 5725 5724 5723 5722 5720 5719 5718 5717 5715 5715 5713 5712 5710 5708 5706 5704 5700 5696 5697 5697 5698 5697 5695 5693 5692 5691 5690 5689 5688 5686 5685 5683 5682 5680 5678 5676 5675
5731 5730 5729 5727 5726 5725 5723 5722 5721 5720 5718 5717 5716 5714 5713 5712 5709 5708 5706 5704 5702 5701 5698 5694 5692 5692 5692 5692 5690 5689 5688 5687 5687 5686 5685 5684 5682 5680 5679 5677 5675 5673 5672
5730 5729 5728 5727 5725 5724 5722 5721 5719 5718 5716 5716 5715 5713 5712 5710 5707 5705 5703 5700 5698 5696 5693 5690 5687 5686 5686 5686 5684 5681 5680 5681 5681 5682 5680 5679 5678 5676 5675 5673 5671 5670 5668
5730 5728 5727 5725 5724 5722 5721 5720 5718 5716 5714 5712 5712 5711 5711 5709 5708 5705 5702 5698 5696 5691 5688 5685 5682 5680 5679 5678 5677 5676 5674 5674 5675 5675 5674 5674 5672 5671 5669 5668 5666 5665 5663
5728 5726 5724 5723 5722 5722 5722 5720 5718 5715 5713 5710 5708 5708 5707 5706 5705 5703 5701 5699 5695 5690 5685 5682 5679 5676 5675 5674 5673 5671 5668 5665 5664 5669 5666 5666 5666 5664 5663 5662 5661 5660 5658
5726 5724 5723 5722 5720 5721 5720 5718 5716 5714 5711 5709 5707 5705 5704 5704 5702 5699 5697 5696 5693 5691 5687 5683 5677 5675 5673 5672 5669 5666 5663 5660 5659 5661 5658 5658 5659 5657 5657 5656 5655 5653 5651
5725 5723 5722 5721 5719 5719 5718 5716 5714 5712 5709 5707 5705 5703 5701 5700 5698 5695 5692 5690 5688 5686 5684 5681 5678 5676 5674 5671 5666 5663 5659 5657 5656 5655 5652 5648 5651 5650 5651 5649 5648 5646 5644
5724 5722 5721 5719 5717 5716 5716 5714 5711 5707 5705 5703 5703 5701 5699 5697 5696 5692 5688 5684 5682 5681 5681 5678 5676 5673 5670 5666 5662 5656 5652 5647 5646 5647 5645 5641 5642 5642 5642 5641 5640 5638 5635
5723 5722 5720 5718 5717 5715 5714 5711 5708 5704 5701 5700 5698 5698 5696 5694 5691 5688 5684 5680 5676 5676 5674 5672 5670 5667 5664 5661 5657 5651 5647 5641 5637 5636 5638 5633 5632 5629 5628 5632 5630 5628 5625